Tracking 20041 objects as of 22-Nov-2019
Live streaming from Space Station
objects crossing your sky now

COSMOS 1375 DEB

Track COSMOS 1375 DEB now!
10-day predictions


NORAD ID: 16375
Int'l Code: 1982-055P
Perigee: 943.8 km
Apogee: 997.6 km
Inclination: 65.8 °
Period: 104.3 minutes
Semi major axis: 7341 km
RCS: 0.132 m2 (medium)
Launch date: June 6, 1982
Source: Commonwealth of Independent States (former USSR) (CIS)
Launch site: PLESETSK MISSILE AND SPACE COMPLEX (PKMTR)

Note: This is SATELLITE DEBRIS
aabbcc
Your satellite tracking list
Your tracking list is empty




NASA's NSSDC Master Catalog

Two Line Element Set (TLE):
1 16375U 82055P   19325.65556897 -.00000045 +00000-0 +35162-4 0  9994
2 16375 065.8339 331.2247 0036592 259.9108 198.9855 13.80090638716860
Source of the keplerian elements: AFSPC